Location: Austin
(30.3000°N, 97.7500°W)
Time: 12:59:00
(UTC-05:00)

CENTAUR R/B - Pass Details

Date: 08 April 2026
Orbit: 625 x 1555 km, 63.4° (Epoch: 11 April)

Event Time Altitude Azimuth Distance (km) Brightness Sun altitude
Rises 21:57:09 0° 326° (NW) 4,432 6.9 -26.0°
Reaches altitude 10° 21:59:59 10° 323° (NW) 3,545 6.2 -26.5°
Maximum altitude 22:08:50 61° 246° (WSW) 1,713 3.8 -28.2°
Enters shadow 22:13:57 30° 179° (S) 2,512 4.3 -29.2°
